sat.trackr.live / text

‹ back to catalog

STARLINK-37898

NORAD 69705 · 2026-147B

PAYLOAD ACTIVE UNKNOWN

§ Identity

Operator
Country
US
Launch date
2026-06-28
Launch site
AFWTR
Launch vehicle
Mass (kg)
RCS (m²)

Purposes: comms

External: N2YO · Heavens-Above · Gunter

§ Orbital elements

Epoch: 2026-09-19T08:33:12.365568Z

Period
93.91 min
Inclination
97.2820°
Eccentricity
0.0001466
Mean motion
15.33456005 rev/d
Perigee alt
464.5 km
Apogee alt
466.5 km
Semi-major
6,843.6 km
B*
4.3450e-4
RAAN
298.6563°
Arg perigee
103.7856°
Mean anomaly
256.3550°
Rev number
1,405

§ Raw data

STARLINK-378981 69705U 26147B   26262.35639312  .00013983  00000+0  43450-3 0  99992 69705  97.2820 298.6563 0001466 103.7856 256.3550 15.33456005 14051

JSON: /api/v1/satellites/69705 · /tle

For live sub-satellite position, see the globe view (requires WebGL).

§ Visibility from observer

Set your observer location to see the next 7 days of passes ≥ 10°. The values pass through the URL so the page stays shareable.

No JS? Fill the form by hand. The geolocation button needs JavaScript.